Location: RyutenAO
(34.8939°N, 134.0022°E)
Time: 06:44:06
(UTC+09:00)

N. Korean satellite - Pass Details

Date: 30 November 2022
Orbit: 407 x 442 km, 97.3° (Epoch: 05 February)

Event Time Altitude Azimuth Distance (km) Brightness Sun altitude
Rises 05:42:52 0° 2° (N) 2,520 10.0 -14.0°
Reaches altitude 10° 05:45:02 10° 353° (N) 1,635 9.0 -13.6°
Maximum altitude 05:48:17 36° 286° (WNW) 753 7.0 -13.0°
Drops below altitude 10° 05:51:24 11° 218° (SW) 1,574 8.9 -12.3°
Sets 05:53:35 0° 209° (SSW) 2,465 10.0 -11.9°
